Regional Weather Roundup
Issued by NWS Charleston, SC

Current Version | Previous Version | Graphics & Text | Print | Product List | Glossary On
Versions: 1 2 3 4 5 6 7 8 9 10 11 12 13 14 15 16 17 18 19 20 21 22 23 24 25 26 27 28 29 30 31 32 33 34 35 36 37 38 39 40 41 42 43 44 45 46 47 48 49 50
000 ASUS42 KCHS 300910 RWRCHS REGIONAL WEATHER ROUNDUP NATIONAL WEATHER SERVICE CHARLESTON SC 500 AM EDT SAT AUG 30 2014 NOTE: "FAIR" INDICATES FEW OR NO CLOUDS BELOW 12,000 FEET WITH NO SIGNIFICANT WEATHER AND/OR OBSTRUCTIONS TO VISIBILITY. NOT ALL STATIONS ARE QUALITY CONTROLLED BY THE NATIONAL WEATHER SERVICE. USE DATA WITH CAUTION...ESPECIALLY DEWPOINT OBSERVATIONS. SCZ027-030-031-034>040-042>050-301000- ...SOUTH CAROLINA... CITY SKY/WX TMP DP RH WIND PRES REMARKS N CHARLESTON CLEAR 75 72 90 CALM 30.14R WATERFRONT PRK N/A 82 N/A N/A CALM N/A FORT JOHNSON NOT AVBL MOUNT PLEASANT LGT RAIN 72 72 100 CALM 30.13S JOHNS ISLAND SUNNY 73 73 100 CALM 30.13S PINOPOLIS N/A 79 75 89 SE2 30.05R MONCKS CORNER N/A 72 72 100 CALM 30.14R SUMMERVILLE FAIR 70 70 100 CALM 30.15R BEAUFORT MCAS CLEAR 76 73 91 CALM 30.12S BEAUFORT ARPT FAIR 77 77 100 CALM 30.11F HILTON HEAD IS PTCLDY 75 75 100 CALM 30.13R GEORGETOWN NOT AVBL WALTERBORO SUNNY 70 N/A N/A CALM 30.14S ORANGEBURG CLEAR 71 69 93 CALM 30.15R BARNWELL FAIR 73 70 88 CALM 30.14S AIKEN FAIR 70 70 100 CALM 30.18R MANNING CLOUDY 70 N/A N/A CALM 30.15R VSB 1 KINGSTREE NOT AVBL COLUMBIA MOCLDY 73 67 81 CALM 30.14R SUMTER CLOUDY 74 74 100 NE5 30.14S FLORENCE PTCLDY 72 71 97 CALM 30.15R FOG MYRTLE BEACH CLEAR 77 73 88 CALM 30.14S N MYRTLE BEACH CLEAR 74 72 93 NE3 30.14S $$ GAZ063-065-086>088-099>101-113>116-118-119-134-136>141-150-301000- ...GEORGIA... CITY SKY/WX TMP DP RH WIND PRES REMARKS SAVANNAH ARPT MOCLDY 76 73 91 CALM 30.12R HUNTER AAF CLEAR 75 74 97 CALM 30.10R FORT STEWART CLEAR 71 70 94 N3 30.10S STATESBORO NOT AVBL SYLVANIA MOSUNNY 67 67 100 CALM 30.14R CLAXTON NOT AVBL THOMSON CLEAR 73 73 100 CALM 30.17R AUGUSTA-BUSH CLEAR 70 68 93 CALM 30.12S AUGUSTA-DANIEL CLEAR 75 71 87 SE6 30.14R SWAINSBORO FAIR 75 75 100 SE3 30.13S VIDALIA N/A 73 73 100 CALM 30.12F ALMA PTCLDY 75 73 93 CALM 30.11R WAYCROSS PTCLDY 77 76 97 CALM 30.10S JESUP N/A 73 73 100 CALM 30.11R FOG BRUNSWICK CLEAR 75 72 88 CALM 30.11S SAINT SIMONS CLEAR 77 74 90 W3 30.10S $$ SCZ027-028-034-036>038-045-046-048>050-GAZ119-141-301000- ...LAKE AND SUPPLEMENTAL COASTAL OBSERVATIONS... STATION/POSITION TIME TEMP WIND PRES WAVE SWELL AIR SEA DIR/SP/G HT/PER HT/PER/DIR (UTC) (F) (DEG/KT/KT) (MB) (FT/S) (FT/S/D) UPR LAKE MARION NOT AVBL WINYAH BAY 0800 77 290/ 1 1020.0S LAKE MURRAY 0800 76 90/ 4/ 5 1020.0S ACE BASIN NERRS 0800 75 CALM 1020.0S FORT PULASKI 0900 80 130/ 1/ 2 1019.9S SAPELO ISLAND 0800 80 270/ 1 1020.0S $$ ANZ835-935-AMZ111-154-330-350-352-354-374-450-454-472-301000- ...C-MAN AND BUOY OBSERVATIONS... STATION/POSITION TIME TEMP WIND PRES WAVE SWELL AIR SEA DIR/SP/G HT/PER HT/PER/DIR (UTC) (F) (DEG/KT/KT) (MB) (FT/S) (FT/S/D) FOLLY BEACH CMAN 0800 81 150/ 2/ 4 1020.5F BUOY 41004 0900 82 83 350/ 2/ 2 1019.9R 3/ 8 3/ 8 BUOY 41008 0900 82 84 190/ 4/ 6 1019.4S 2/ 9 2/ 90/ 9 5E ST. MARYS GA 0900 83 N/A 2/ 8 FRYING PAN BUOY NOT AVBL BUOY 41025 0900 76 170/ 8/ 10 1021.5R 4/ 7 3/ 90/ 7 CAPE LOOKOUT NC 0800 80 70/ 3/ 3 1021.1F BUOY 41002 0843 81 82 100/ 8/ 10 1021.4F 3/ 8 3/110/ 8 BUOY 41010 0900 82 84 160/ 4/ 6 1019.7R 3/ 8 3/ 90/ 8 BUOY 41012 NOT AVBL ST AUGUSTINE FL 0900 74 250/ 5/ 6 1020.0R CAPERS NEARSHORE 0800 80 CALM / 4 N/A FRIPP NEARSHORE NOT AVBL $$

USA.gov is the U.S. government's official web portal to all federal, state and local government web resources and services.